Time,TemperatureF,DewpointF,PressureIn,WindDirection,WindDirectionDegrees,WindSpeedMPH,WindSpeedGustMPH,Humidity,HourlyPrecipIn,Conditions,Clouds,dailyrainin,SoftwareType,DateUTC
2013-08-01 00:00:00,69.0,67.0,30.06,South,190,9.0,9.0,91,-99.99,,,-99.99,,2013-08-01 04:00:00,
2013-08-01 00:33:00,69.0,67.0,30.06,South,190,9.0,9.0,91,-99.99,,,-99.99,,2013-08-01 04:33:00,
2013-08-01 00:43:00,69.0,67.0,30.06,South,190,9.0,9.0,91,-99.99,,,-99.99,,2013-08-01 04:43:00,
2013-08-01 00:52:00,69.0,67.0,30.06,South,190,9.0,9.0,91,-99.99,,,-99.99,,2013-08-01 04:52:00,
2013-08-01 01:00:00,69.0,68.0,30.05,SSW,200,8.0,9.0,96,-99.99,,,-99.99,,2013-08-01 05:00:00,
2013-08-01 01:32:00,69.0,68.0,30.05,SSW,200,8.0,9.0,96,-99.99,,,-99.99,,2013-08-01 05:32:00,
2013-08-01 01:43:00,69.0,68.0,30.05,SSW,200,8.0,9.0,96,-99.99,,,-99.99,,2013-08-01 05:43:00,
2013-08-01 01:53:00,69.0,68.0,30.05,SSW,200,8.0,9.0,96,-99.99,,,-99.99,,2013-08-01 05:53:00,
2013-08-01 03:32:00,69.0,69.0,30.02,South,180,8.0,9.0,100,-99.99,,,-99.99,,2013-08-01 07:32:00,
2013-08-01 07:33:00,69.0,69.0,30.01,South,180,8.0,9.0,100,-99.99,,,-99.99,,2013-08-01 11:33:00,
2013-08-01 07:43:00,69.0,69.0,30.01,South,180,8.0,9.0,100,-99.99,,,-99.99,,2013-08-01 11:43:00,
2013-08-01 08:00:00,69.0,69.0,30.01,SSE,160,7.0,8.0,100,-99.99,,,-99.99,,2013-08-01 12:00:00,
2013-08-01 08:52:00,69.0,69.0,30.01,SSE,160,7.0,8.0,100,-99.99,,,-99.99,,2013-08-01 12:52:00,
2013-08-01 11:00:00,70.0,66.0,29.98,SE,140,13.0,13.0,88,-99.99,,,-99.99,,2013-08-01 15:00:00,
2013-08-01 11:32:00,70.0,66.0,29.98,SE,140,13.0,13.0,88,-99.99,,,-99.99,,2013-08-01 15:32:00,
2013-08-01 11:52:00,70.0,66.0,29.98,SE,140,13.0,13.0,88,-99.99,,,-99.99,,2013-08-01 15:52:00,
2013-08-01 12:00:00,70.0,66.0,29.98,SSE,160,12.0,12.0,87,-99.99,,,-99.99,,2013-08-01 16:00:00,
2013-08-01 12:52:00,70.0,66.0,29.98,SSE,160,12.0,12.0,87,-99.99,,,-99.99,,2013-08-01 16:52:00,
2013-08-01 13:32:00,70.0,67.0,29.97,SSE,160,13.0,14.0,91,-99.99,,,-99.99,,2013-08-01 17:32:00,
2013-08-01 13:42:00,70.0,67.0,29.97,SSE,160,13.0,14.0,91,-99.99,,,-99.99,,2013-08-01 17:42:00,
2013-08-01 13:52:00,70.0,67.0,29.97,SSE,160,13.0,14.0,91,-99.99,,,-99.99,,2013-08-01 17:52:00,
2013-08-01 14:42:00,70.0,67.0,29.95,SSE,150,10.0,12.0,88,-99.99,,,-99.99,,2013-08-01 18:42:00,
2013-08-01 14:52:00,70.0,67.0,29.95,SSE,150,10.0,12.0,88,-99.99,,,-99.99,,2013-08-01 18:52:00,
2013-08-01 16:00:00,70.0,70.0,29.94,South,170,12.0,12.0,100,-99.99,,,-99.99,,2013-08-01 20:00:00,
2013-08-01 16:42:00,70.0,70.0,29.94,South,170,12.0,12.0,100,-99.99,,,-99.99,,2013-08-01 20:42:00,
2013-08-01 20:32:00,71.0,67.0,29.92,SW,220,17.0,18.0,87,-99.99,,,-99.99,,2013-08-02 00:32:00,
2013-08-01 20:43:00,71.0,67.0,29.92,SW,220,17.0,18.0,87,-99.99,,,-99.99,,2013-08-02 00:43:00,
2013-08-01 21:00:00,68.0,58.0,29.92,SSW,200,20.0,21.0,68,-99.99,,,-99.99,,2013-08-02 01:00:00,
2013-08-01 21:32:00,68.0,58.0,29.92,SSW,200,20.0,21.0,68,-99.99,,,-99.99,,2013-08-02 01:32:00,
2013-08-01 21:42:00,68.0,58.0,29.92,SSW,200,20.0,21.0,68,-99.99,,,-99.99,,2013-08-02 01:42:00,
2013-08-01 21:52:00,68.0,58.0,29.92,SSW,200,20.0,21.0,68,-99.99,,,-99.99,,2013-08-02 01:52:00,
2013-08-01 22:00:00,67.0,60.0,29.91,South,190,7.0,7.0,75,-99.99,,,-99.99,,2013-08-02 02:00:00,
2013-08-01 22:44:00,67.0,60.0,29.91,South,190,7.0,7.0,75,-99.99,,,-99.99,,2013-08-02 02:44:00,
2013-08-01 22:52:00,67.0,60.0,29.91,South,190,7.0,7.0,75,-99.99,,,-99.99,,2013-08-02 02:52:00,
2013-08-01 23:00:00,67.0,62.0,29.91,SSW,200,7.0,7.0,84,-99.99,,,-99.99,,2013-08-02 03:00:00,
2013-08-01 23:52:00,67.0,62.0,29.91,SSW,200,7.0,7.0,84,-99.99,,,-99.99,,2013-08-02 03:52:00,